[[{"header":{"parameterUnit":"m.s-1","parameterCategory":1,"la1":30.2991,"la2":30.254,"lo1":-89.0895,"lo2":-89.0444,"dy":0.0017,"dx":0.0017,"nx":28,"ny":28,"refTime":"2024-10-12T09:00:00:Z","depth":0,"parameterNumber":2,"parameterNumberName":"U-component_of_WINDS"},"data":[0,0,0,0,0,0,0,0,0,0,0,0,0,0,0,0,0,0,0,0,0,0,0,0,0,0,0,0,0,0,0,0,0,0,0,0,0,0,0,0,0,0,0,0,0,0,0,0,0,0,0,0,0,0,0,0,0,0,1.5846,1.5847,0,1.5905,1.5906,1.5906,1.5911,1.591,1.591,1.5909,1.5973,1.5975,1.5977,0,0,0,0,0,0,0,0,0,0,0,0,0,1.5741,1.5743,1.5846,1.5847,1.5848,1.5905,1.5906,1.5907,1.5911,1.591,1.591,1.5909,1.5972,1.5975,1.5977,0,0,0,0,0,0,0,0,0,0,0,0,0,1.5792,1.5744,1.5846,1.5857,1.5858,1.5905,1.5906,1.5907,1.5911,1.591,1.5909,1.5909,1.5971,1.5974,1.5978,1.6018,0,0,1.5988,1.599,0,0,0,0,0,0,0,0,1.5789,1.5796,1.5855,1.5856,1.5858,1.59,1.5892,1.5944,1.5912,1.5891,1.5909,1.5908,1.5949,1.5955,1.5968,1.6021,1.6024,1.5989,1.5991,1.5992,1.5993,0,0,0,0,0,0,0,1.5786,1.5793,1.587,1.5855,1.5858,1.586,1.5866,1.5902,1.5925,1.5893,1.5894,1.59,1.595,1.5964,1.5969,1.6025,1.5988,1.5992,1.5994,1.5995,1.6116,1.6117,0,0,0,0,0,0,1.578,1.579,1.5868,1.5871,1.582,1.5862,1.5869,1.5887,1.5925,1.593,1.5901,1.59,1.5959,1.5965,1.5972,1.6022,1.5992,1.5995,1.5997,1.6114,1.6116,1.6117,0,0,0,0,0,0,1.5777,1.5786,1.5865,1.5831,1.5841,1.5865,1.5886,1.5889,1.5903,1.5931,1.5935,1.5911,1.5959,1.5967,1.6007,1.6024,1.5997,1.6,1.6113,1.6115,1.6116,1.6123,0,0,0,0,0,0,1.5774,1.5786,1.5801,1.5831,1.5843,1.5898,1.5887,1.5891,1.5909,1.5908,1.5942,1.5946,1.5958,1.6001,1.601,1.6028,1.6003,1.6112,1.6114,1.6116,1.6121,1.6125,1.6127,0,0,0,0,0,1.5771,1.5801,1.5801,1.5811,1.5862,1.5899,1.5906,1.5919,1.591,1.5926,1.5944,1.5945,1.6021,1.6006,1.6015,1.6035,1.6111,1.6113,1.6116,1.612,1.6124,1.6127,0,0,0,0,0,0,1.5772,1.5805,1.5806,1.5847,1.587,1.59,1.592,1.5923,1.595,1.5949,1.5964,1.5972,1.6011,1.6027,1.6009,1.6077,1.6065,1.607,1.6065,1.6069,1.6072,1.6067,1.6006,0,0,0,0,0,1.5777,1.5804,1.5831,1.5865,1.5876,1.5896,1.5913,1.5921,1.5946,1.5956,1.5977,1.6002,1.6032,1.6051,1.608,1.6123,1.6131,1.6142,1.6145,1.6147,1.6151,1.6176,1.6181,1.6126,1.6126,1.6125,0,0,1.5788,1.5809,1.5825,1.5865,1.5885,1.5913,1.5905,1.5935,1.5956,1.5961,1.6,1.6016,1.6046,1.6087,1.6107,1.6102,1.6168,1.6151,1.6152,1.6155,1.6179,1.6184,1.6189,1.6127,1.6127,1.6127,0,0,1.5822,1.584,1.587,1.5889,1.5918,1.5931,1.5938,1.5968,1.5979,1.6018,1.6022,1.6048,1.6099,1.612,1.6137,1.6179,1.6182,1.6188,1.6205,1.6229,1.6233,1.6237,1.6252,1.6258,1.6192,1.6192,1.6192,0,1.5832,1.5874,1.5886,1.5916,1.5934,1.5938,1.5969,1.5988,1.6025,1.6038,1.6031,1.6095,1.6115,1.6162,1.6172,1.6186,1.6195,1.6185,1.6231,1.6235,1.6239,1.6254,1.626,1.6193,1.6193,1.6193,1.6193,0,1.5885,1.5914,1.5935,1.5969,1.599,1.602,1.6038,1.6057,1.6063,1.6077,1.6117,1.6141,1.6175,1.6187,1.6193,1.6235,1.6231,1.6228,1.6216,1.6245,1.6259,1.6265,1.6194,1.6193,1.6193,1.6193,0,0,1.5922,1.5963,1.597,1.5986,1.6018,1.6041,1.6072,1.6104,1.6121,1.6146,1.6173,1.6216,1.6213,1.6232,1.6242,1.6262,1.6295,1.6257,1.6258,1.6263,1.6342,1.6345,1.6351,1.6296,1.6297,1.6298,1.634,0,1.596,1.6014,1.6026,1.6073,1.61,1.6105,1.6132,1.6156,1.617,1.6196,1.6212,1.6242,1.6235,1.6247,1.6268,1.6286,1.6311,1.6283,1.6322,1.6323,1.6315,1.6358,1.6361,1.6399,1.6345,1.6346,1.6347,0,1.6011,1.6037,1.6087,1.6115,1.6127,1.6151,1.6182,1.6206,1.6233,1.6242,1.6264,1.627,1.6304,1.629,1.6337,1.6318,1.6335,1.6346,1.6348,1.6352,1.6337,1.6364,1.6411,1.6417,1.6356,1.6355,1.6355,0,1.6034,1.6081,1.6117,1.613,1.6164,1.6181,1.6196,1.6222,1.6241,1.6268,1.628,1.6311,1.6328,1.6352,1.6368,1.6356,1.6413,1.6401,1.6422,1.6422,1.6434,1.6433,1.6485,1.6444,1.6444,1.6444,1.6444,0,1.6075,1.6105,1.6127,1.6149,1.6184,1.6197,1.6231,1.6246,1.6269,1.6295,1.6302,1.6326,1.6344,1.6372,1.6384,1.6421,1.6429,1.6437,1.644,1.6437,1.6436,1.6448,1.6446,1.6446,1.6445,1.6445,1.6445,0,1.6106,1.6122,1.6161,1.619,1.6198,1.6222,1.6247,1.627,1.6284,1.6316,1.6325,1.6347,1.6379,1.6397,1.6438,1.6446,1.6487,1.6489,1.6478,1.6479,1.6499,1.6497,1.6561,1.657,1.6523,1.6524,1.6524,0,1.6131,1.6155,1.6186,1.6203,1.6218,1.6246,1.6265,1.628,1.6299,1.6331,1.635,1.6382,1.6409,1.646,1.6481,1.6512,1.6515,1.6535,1.6519,1.6515,1.6515,1.6513,1.6516,1.6537,1.6538,1.6538,1.6539,0,1.6175,1.6181,1.6208,1.6237,1.6259,1.6283,1.6307,1.6321,1.6339,1.6361,1.6394,1.6414,1.6455,1.6488,1.6521,1.6537,1.6541,1.6543,1.655,1.6546,1.6539,1.6544,1.6486,1.6542,1.6541,1.6541,1.6541,1.6541,1.6204,1.6225,1.625,1.6279,1.6299,1.6321,1.6343,1.6359,1.6386,1.642,1.6428,1.6462,1.6489,1.6533,1.6551,1.6578,1.6574,1.6584,1.6586,1.6588,1.6589,1.6535,1.6584,1.6584,1.6584,1.6584,1.6584,0,1.6248,1.6264,1.6291,1.6324,1.6347,1.6348,1.6374,1.6394,1.6424,1.6448,1.6473,1.6511,1.6542,1.6565,1.6597,1.6615,1.6618,1.6623,1.6622,1.6626,1.6591,1.6582,1.6621,1.6621,1.6621,1.6621,1.6621,1.6621,1.6274,1.6309,1.6319,1.6364,1.6381,1.6414,1.6429,1.645,1.6469,1.651,1.6536,1.655,1.6574,1.6608,1.6637,1.6643,1.6654,1.666,1.6666,1.6633,1.6629,1.6625,1.6617,1.6662,1.6662,1.6699,1.6699,1.6699]},{"header":{"parameterUnit":"m.s-1","parameterCategory":1,"la1":30.2991,"la2":30.254,"lo1":-89.0895,"lo2":-89.0444,"dy":0.0017,"dx":0.0017,"nx":28,"ny":28,"refTime":"2024-10-12T09:00:00:Z","depth":0,"parameterNumber":3,"parameterNumberName":"V-component_of_WINDS"},"data":[0,0,0,0,0,0,0,0,0,0,0,0,0,0,0,0,0,0,0,0,0,0,0,0,0,0,0,0,0,0,0,0,0,0,0,0,0,0,0,0,0,0,0,0,0,0,0,0,0,0,0,0,0,0,0,0,0,0,1.8183,1.8183,0,1.8173,1.8173,1.8172,1.818,1.818,1.8181,1.8181,1.8169,1.8168,1.8168,0,0,0,0,0,0,0,0,0,0,0,0,0,1.8205,1.8204,1.8183,1.8182,1.8182,1.8173,1.8173,1.8172,1.818,1.818,1.8181,1.8181,1.8169,1.8168,1.8168,0,0,0,0,0,0,0,0,0,0,0,0,0,1.8195,1.8204,1.8183,1.8185,1.8185,1.8173,1.8173,1.8172,1.818,1.818,1.8181,1.8181,1.8169,1.8168,1.8167,1.8152,0,0,1.8165,1.8164,0,0,0,0,0,0,0,0,1.8196,1.8194,1.8185,1.8185,1.8185,1.8178,1.8176,1.8165,1.818,1.8182,1.8181,1.8182,1.8171,1.817,1.8167,1.8151,1.815,1.8164,1.8164,1.8163,1.8163,0,0,0,0,0,0,0,1.8196,1.8195,1.8179,1.8185,1.8185,1.8185,1.8185,1.8174,1.8174,1.8182,1.8182,1.8181,1.8172,1.8168,1.8167,1.815,1.8164,1.8164,1.8163,1.8163,1.8117,1.8117,0,0,0,0,0,0,1.8197,1.8195,1.8179,1.8178,1.8192,1.8185,1.8184,1.818,1.8174,1.8174,1.8181,1.8181,1.817,1.8168,1.8167,1.8146,1.8163,1.8163,1.8162,1.8118,1.8117,1.8117,0,0,0,0,0,0,1.8198,1.8196,1.8179,1.8187,1.8185,1.8184,1.8179,1.8179,1.8176,1.8173,1.8173,1.8177,1.817,1.8168,1.8155,1.8145,1.8162,1.8161,1.8119,1.8118,1.8117,1.8105,0,0,0,0,0,0,1.8198,1.8196,1.8191,1.8187,1.8184,1.8169,1.8179,1.8179,1.8175,1.8176,1.817,1.817,1.817,1.8156,1.8154,1.8144,1.8161,1.812,1.8118,1.8117,1.8106,1.8104,1.8102,0,0,0,0,0,1.8199,1.8188,1.819,1.8188,1.8178,1.8168,1.8167,1.8168,1.8174,1.8168,1.8166,1.817,1.8147,1.8155,1.8152,1.8142,1.812,1.8119,1.8117,1.8107,1.8104,1.8102,0,0,0,0,0,0,1.819,1.8187,1.819,1.8178,1.8173,1.817,1.8162,1.8165,1.8159,1.816,1.8161,1.8159,1.8145,1.8143,1.8151,1.8125,1.8134,1.8132,1.8128,1.8125,1.8122,1.8123,1.816,0,0,0,0,0,1.8187,1.818,1.8178,1.8167,1.8164,1.8163,1.8159,1.816,1.8156,1.8154,1.8151,1.8145,1.8136,1.813,1.8123,1.8106,1.8104,1.8098,1.8096,1.8094,1.8092,1.808,1.8077,1.8112,1.8112,1.8112,0,0,1.818,1.8178,1.8173,1.8165,1.8161,1.8153,1.8162,1.8153,1.8146,1.8152,1.8139,1.8136,1.813,1.8114,1.8107,1.8112,1.8081,1.8092,1.809,1.8089,1.8078,1.8075,1.8072,1.8111,1.8111,1.8111,0,0,1.8163,1.8161,1.8151,1.8147,1.8142,1.8141,1.8138,1.8134,1.8132,1.8119,1.8123,1.8114,1.81,1.8094,1.809,1.8068,1.8071,1.8065,1.8053,1.8042,1.8039,1.8037,1.8027,1.8023,1.8063,1.8063,1.8063,0,1.8154,1.8143,1.8145,1.8135,1.813,1.8135,1.8124,1.812,1.8112,1.8108,1.8113,1.8094,1.809,1.8072,1.8066,1.8063,1.8058,1.8066,1.804,1.8037,1.8035,1.8025,1.8022,1.8063,1.8063,1.8063,1.8063,0,1.8132,1.8123,1.8115,1.8108,1.8102,1.8092,1.8091,1.8085,1.8086,1.8084,1.8069,1.8065,1.8055,1.8051,1.8052,1.8032,1.8035,1.804,1.8049,1.8031,1.8022,1.8018,1.8062,1.8062,1.8062,1.8062,0,0,1.8109,1.8102,1.8099,1.8094,1.8088,1.8081,1.8069,1.806,1.8054,1.8048,1.8037,1.8024,1.8027,1.8022,1.8023,1.8013,1.7993,1.8019,1.8019,1.8013,1.7968,1.7963,1.7959,1.7995,1.7994,1.7994,1.7968,0,1.809,1.8071,1.8072,1.8054,1.8045,1.8048,1.8038,1.8032,1.803,1.8021,1.8018,1.8007,1.8015,1.8011,1.8002,1.7998,1.7984,1.8,1.7983,1.7982,1.7983,1.7955,1.795,1.7926,1.7964,1.7964,1.7964,0,1.8066,1.8059,1.804,1.8033,1.8029,1.802,1.801,1.8002,1.7994,1.7993,1.7986,1.7987,1.7973,1.7983,1.7963,1.7974,1.7967,1.7964,1.7963,1.796,1.7971,1.795,1.7918,1.7914,1.7958,1.7959,1.7959,0,1.8049,1.8035,1.8021,1.8017,1.8009,1.8002,1.7998,1.7992,1.7985,1.7976,1.7971,1.7961,1.7954,1.7945,1.7943,1.7951,1.7922,1.7932,1.7919,1.7919,1.7912,1.7912,1.7877,1.791,1.791,1.791,1.791,0,1.8027,1.8015,1.8013,1.8004,1.799,1.799,1.7975,1.7972,1.7965,1.7954,1.7957,1.7946,1.7945,1.7933,1.7931,1.7913,1.7911,1.7908,1.7907,1.7907,1.7907,1.7902,1.7903,1.7909,1.7909,1.791,1.791,0,1.8006,1.8005,1.7989,1.7983,1.7981,1.797,1.7963,1.7954,1.7951,1.7938,1.7934,1.793,1.7916,1.7913,1.7897,1.7895,1.7874,1.7875,1.7876,1.7876,1.7862,1.7862,1.7821,1.7814,1.7853,1.7853,1.7852,0,1.7992,1.7982,1.7974,1.7967,1.7963,1.7953,1.7946,1.7945,1.7937,1.7926,1.7918,1.7905,1.7894,1.7872,1.7866,1.7853,1.7853,1.7839,1.7851,1.785,1.785,1.785,1.7848,1.7837,1.7836,1.7836,1.7836,0,1.7966,1.7965,1.7956,1.7945,1.7937,1.7928,1.792,1.7914,1.7912,1.7903,1.7889,1.7881,1.7863,1.7849,1.7836,1.783,1.7831,1.7832,1.7828,1.7827,1.7827,1.7824,1.7868,1.7833,1.7833,1.7833,1.7834,1.7834,1.7946,1.7937,1.7929,1.7918,1.7912,1.7904,1.7894,1.7889,1.7878,1.7865,1.7864,1.7849,1.7839,1.7821,1.7814,1.78,1.7804,1.7799,1.7797,1.7795,1.7793,1.783,1.7798,1.7798,1.7798,1.7798,1.7798,0,1.7919,1.7914,1.7903,1.7891,1.7882,1.7885,1.7875,1.7867,1.7853,1.7844,1.7833,1.7816,1.7802,1.7794,1.7779,1.777,1.777,1.7766,1.7765,1.7763,1.7792,1.7796,1.7766,1.7766,1.7766,1.7766,1.7766,1.7766,1.7903,1.7887,1.7885,1.7865,1.7859,1.7845,1.7839,1.783,1.7823,1.7803,1.7792,1.7787,1.7778,1.7762,1.7748,1.7746,1.7739,1.7735,1.7733,1.7759,1.7762,1.7765,1.7769,1.7734,1.7734,1.7706,1.7705,1.7705]}]]